Temp
9 10 10 9 10 10 9 10 9 11 11 12 13 13 12 10 11 11 11 10 10 9 9 11 12 12 12 12 12 12 12 13 13 13 13 13 12 12 11 11 11 11 10 9
2 8 9 9 9 9 9 10 10 10 10 13 13 11 10 9 10 10 10 9 9 10 9 10 11 11 11 11 11 11 11 11 12 12 12 12 12 12 11 11 11 10 10 9
9 9 7 6 10 10 10 9 10 8 10 9 8 9 9 9 9 10 9 9 10 10 10 10 10 11 11 11 11 11 10 10 11 11 11 12 11 11 11 11 11 10 10 9
9 8 6 10 11 11 11 10 9 8 9 9 9 9 9 10 9 8 8 10 10 10 10 10 10 10 10 10 10 10 10 10 10 10 10 11 11 11 11 11 10 10 10 9
7 6 9 11 12 13 12 9 9 9 8 9 8 8 9 9 9 8 8 9 10 10 10 10 9 9 9 8 8 8 9 9 9 9 9 9 9 10 11 10 10 10 10 9
7 8 8 11 12 12 11 8 9 10 9 8 7 7 6 7 8 8 9 9 9 9 9 8 8 8 8 7 7 7 7 7 8 8 8 8 9 9 10 10 9 9 9 9
9 9 8 10 12 12 9 8 8 10 9 8 7 6 7 7 8 9 8 8 8 7 7 7 7 7 6 6 6 6 6 6 6 7 7 8 8 9 9 9 8 8 9 9
6 7 8 11 11 8 8 9 10 9 8 7 7 7 7 7 7 6 6 7 7 7 7 7 7 6 5 5 5 5 5 5 5 5 6 7 7 7 8 8 8 7 7 7
7 7 9 9 10 10 10 9 8 7 6 6 6 6 6 6 5 6 6 6 7 6 6 6 6 5 5 5 5 4 4 4 4 5 5 6 6 6 6 7 6 5 5 5
7 7 8 8 9 9 7 7 7 7 6 5 5 5 5 5 5 5 6 6 6 6 5 5 5 5 5 5 4 4 4 4 4 4 5 5 6 6 6 6 5 5 5 5
6 7 7 8 8 6 6 6 6 6 5 5 4 4 4 4 5 5 5 5 6 5 5 5 5 5 5 4 4 3 3 4 4 4 3 4 4 5 5 6 7 6 5 6
5 7 6 7 6 6 5 5 5 4 4 4 4 4 4 4 5 5 4 5 5 5 4 4 4 4 4 4 4 3 3 3 3 2 2 2 2 4 5 6 6 7 6 6
5 6 5 6 5 5 5 4 4 4 3 3 4 4 4 3 5 5 5 4 4 4 4 4 4 4 4 4 4 3 3 2 2 1 2 2 2 2 3 4 5 6 6 6
6 6 4 5 5 4 3 4 5 5 5 5 5 5 4 4 4 4 3 4 4 4 3 3 3 3 3 3 3 3 2 2 1 1 1 1 2 2 2 3 4 5 5 5
4 4 4 4 4 4 5 4 4 4 3 4 5 4 4 4 4 4 4 4 3 3 3 2 3 3 2 2 2 2 2 2 1 1 1 1 1 2 2 3 4 4 4 3
4 4 5 4 3 3 3 3 3 3 4 4 4 4 4 4 4 3 3 3 3 2 3 2 2 2 2 2 1 1 2 1 1 1 1 1 1 1 2 3 3 3 3 2
4 2 4 3 3 3 3 3 4 4 4 4 4 5 4 3 3 3 3 3 2 2 2 2 2 2 2 1 1 1 1 1 1 1 1 1 1 1 1 2 3 3 3 2
4 4 4 3 3 3 3 3 4 4 3 4 4 4 3 2 2 3 3 2 2 1 1 1 1 2 1 1 1 0 0 0 0 0 0 0 1 0 1 2 2 2 2 2
4 3 3 3 3 3 3 3 4 4 4 4 3 3 3 2 2 2 2 1 1 1 1 1 1 2 1 1 0 -0 -0 -0 -0 0 0 0 -0 -0 0 1 2 2 2 1
2 4 4 4 4 3 3 3 3 3 3 3 2 2 1 2 2 1 1 1 1 1 1 1 1 1 1 1 -0 -0 -0 -0 -0 -1 -1 -1 -1 -1 -0 0 1 1 0 -0
1 2 3 3 3 3 3 3 3 2 2 2 2 1 2 2 2 1 1 0 1 1 1 1 0 0 -0 -1 -1 -1 -1 -1 -1 -2 -2 -1 -1 -1 -0 -0 -0 -0 -1 -1
3 3 3 3 2 2 3 3 2 2 2 2 1 1 1 1 1 0 0 -0 0 0 -0 -0 -0 -0 -1 -1 -1 -1 -1 -2 -2 -2 -2 -1 -1 -1 -1 -1 -1 -1 -1 -3
3 3 2 2 2 2 2 2 2 2 1 1 1 0 0 0 0 -0 -1 0 0 0 -0 -1 -0 -1 -1 -1 -1 -2 -3 -3 -3 -3 -3 -2 -1 -1 -1 -1 -2 -3 -4 -4
2 2 1 2 2 2 1 1 1 1 1 1 0 -0 -0 -0 -0 -0 -0 -0 0 0 -1 -1 -1 -1 -1 -1 -3 -3 -4 -4 -4 -4 -4 -4 -3 -3 -4 -4 -4 -4 -5 -5
2 1 1 0 -1 -0 0 0 -0 -0 -1 -1 -1 -1 -0 -0 -1 -0 -0 -0 0 -0 -1 -1 -1 -1 -2 -3 -4 -4 -5 -4 -4 -5 -5 -5 -5 -5 -5 -5 -5 -6 -6 -6
-0 1 1 1 1 1 1 1 0 0 0 -0 -0 -0 -0 -0 -0 -0 -0 0 -0 -0 -1 -2 -2 -2 -3 -4 -5 -5 -5 -5 -6 -6 -6 -6 -6 -6 -6 -7 -7 -7 -6 -6
1 1 1 1 1 1 0 0 0 -0 0 -0 -0 -0 -0 -0 0 -0 -0 -0 -1 -1 -2 -2 -2 -3 -4 -5 -5 -5 -6 -6 -6 -7 -7 -7 -7 -7 -7 -7 -6 -6 -6 -6
Height
847 842 842 839 833 829 835 827 830 796 808 785 786 786 786 789 782 780 780 780 779 777 773 768 764 760 757 753 749 746 742 738 734 730 726 723 720 718 717 717 717 717 716 716
884 845 839 835 825 819 819 814 812 805 803 784 784 787 789 784 781 781 781 780 778 774 770 766 762 759 755 750 745 741 737 734 730 726 722 718 715 712 711 710 710 710 709 709
835 837 842 842 803 804 803 801 797 807 794 793 796 792 788 785 783 781 780 778 775 770 767 763 760 756 752 747 742 737 732 728 725 722 718 714 711 707 705 703 703 702 702 702
835 840 854 795 786 787 788 795 796 798 796 794 793 790 787 782 781 780 778 774 771 767 763 760 756 752 748 744 739 734 728 724 720 716 712 708 705 702 699 697 696 695 695 695
840 846 810 791 782 779 781 798 795 793 792 791 790 788 783 781 780 779 776 772 768 765 762 758 755 751 746 741 737 731 725 720 716 710 705 702 698 696 694 691 689 688 688 688
834 825 818 787 783 780 782 798 792 790 791 790 790 794 789 781 778 774 770 768 764 762 759 755 751 747 743 738 734 728 722 717 711 706 700 696 692 688 686 684 681 680 680 681
815 807 802 788 783 782 796 801 791 787 788 790 792 790 783 778 774 771 767 764 761 758 754 750 747 743 739 735 729 724 719 712 706 701 696 690 686 682 679 676 674 673 672 673
824 816 804 783 786 803 800 792 788 788 787 787 784 780 777 774 770 767 763 760 758 754 749 745 742 737 732 729 724 719 714 707 702 696 690 685 679 675 671 669 667 666 665 665
810 806 787 787 790 791 788 788 789 788 785 782 780 777 774 771 766 762 758 756 753 750 746 741 736 733 728 722 718 714 709 702 695 689 684 678 672 668 664 661 660 659 660 660
802 793 792 788 784 784 786 783 783 780 779 777 776 772 768 765 762 758 754 751 749 745 741 735 730 727 723 718 713 708 702 695 689 683 676 671 666 662 658 654 653 653 653 653
798 793 791 788 786 783 781 778 776 775 775 773 770 768 765 762 758 754 750 747 744 740 736 731 725 720 716 712 708 703 697 690 684 679 673 667 661 657 652 648 646 645 645 646
795 791 790 783 781 780 777 775 773 773 771 769 767 764 761 758 754 750 747 743 739 734 730 725 720 714 709 705 701 697 692 685 679 673 667 662 656 648 645 640 638 637 636 637
788 784 783 778 776 773 773 772 769 768 766 765 761 760 757 754 750 746 741 737 733 728 724 720 714 708 703 699 695 690 686 680 674 669 662 656 650 645 637 632 630 629 628 630
782 779 778 775 772 770 769 766 764 762 761 759 756 753 751 747 742 739 735 732 727 723 719 715 710 703 698 693 689 684 679 673 668 662 657 651 645 639 634 628 624 620 621 623
776 777 776 770 768 765 764 763 761 758 755 752 750 748 745 741 737 731 726 723 719 715 711 708 703 696 692 687 682 676 672 666 662 655 649 644 638 632 626 621 618 615 615 616
775 775 767 766 765 762 761 759 758 754 750 747 744 741 737 734 730 725 720 715 713 707 703 701 695 688 684 680 675 669 664 659 655 648 642 637 631 626 620 614 610 610 610 611
772 773 767 765 761 758 754 752 750 748 744 741 737 732 729 726 722 717 713 709 705 700 696 693 685 680 677 674 669 663 658 652 647 641 635 629 624 619 614 608 605 603 603 605
761 759 758 757 755 752 749 745 742 740 737 733 729 725 722 719 715 710 705 701 696 692 686 682 678 672 669 665 661 656 651 644 638 633 626 621 616 611 607 602 599 598 597 598
756 754 752 750 746 744 742 738 735 732 729 725 722 718 714 710 706 702 696 694 689 684 673 674 670 666 660 656 653 648 642 635 629 624 618 613 608 603 599 595 592 591 592 594
751 747 745 742 739 736 732 729 726 723 719 717 714 710 705 700 697 693 689 685 680 675 669 665 661 657 653 648 645 639 634 628 622 616 610 605 600 595 591 588 586 586 587 590
746 742 738 734 731 727 724 721 719 714 709 708 706 701 696 692 688 685 681 676 668 667 662 658 654 649 645 641 636 631 625 619 614 608 603 598 592 588 584 582 581 582 584 588
739 734 730 726 722 718 715 712 708 703 700 698 694 691 688 683 679 676 671 669 661 659 655 650 646 642 638 633 628 622 617 612 607 602 596 591 585 582 579 578 579 581 584 588
729 725 721 717 713 708 705 701 696 693 691 687 684 681 678 674 671 669 661 658 656 652 648 644 640 636 632 626 621 616 611 606 601 596 591 586 581 578 577 578 580 582 586 591
719 715 711 705 702 699 695 688 686 684 680 677 674 671 669 665 660 660 655 651 648 644 641 637 634 630 625 620 615 610 606 602 597 593 589 586 583 581 581 582 584 588 592 596
708 704 701 697 693 689 683 679 676 673 669 665 662 660 658 656 655 648 647 644 641 638 634 631 628 624 620 615 611 607 604 600 596 593 591 589 588 587 588 589 591 594 598 602
697 693 689 685 681 677 673 671 668 664 661 657 654 652 649 647 645 642 640 637 634 632 629 626 623 619 616 612 610 607 604 601 598 597 595 594 594 594 595 597 600 603 606 610
686 682 677 674 670 667 664 661 658 654 652 649 645 645 642 640 638 636 634 631 629 627 624 621 619 616 614 613 611 609 607 605 603 602 602 602 602 602 604 605 608 611 615 620
Wind_Speed
10 12 11 15 20 18 16 17 13 24 18 26 19 16 8 6 5 6 8 8 6 7 7 16 22 24 26 26 29 27 29 28 30 31 30 29 28 27 26 26 26 26 25 24
3 11 15 18 21 20 19 20 21 23 23 24 17 5 5 7 7 7 6 7 7 8 10 15 22 24 28 30 31 32 32 28 30 30 31 30 30 30 28 28 28 26 25 25
8 3 6 8 11 8 6 7 7 7 5 6 6 6 7 5 4 5 5 6 11 13 15 18 22 27 27 32 35 33 31 30 30 29 31 32 29 30 30 31 30 28 27 26
5 3 4 7 8 8 8 5 6 4 4 4 4 6 7 1 4 7 8 13 15 21 20 24 29 31 30 31 33 34 31 29 30 30 30 32 31 28 30 32 32 31 30 27
4 4 9 10 8 1 5 2 2 1 4 4 5 5 4 5 9 6 8 10 19 22 22 26 26 29 32 29 28 28 28 28 30 31 30 30 29 30 31 32 33 33 31 28
3 4 5 0 1 1 3 4 4 2 5 6 6 5 4 7 12 13 16 16 19 23 25 22 25 31 27 24 26 26 28 30 31 33 32 30 31 32 32 31 31 33 33 30
12 9 6 4 3 2 2 4 6 2 4 4 3 4 8 9 10 15 17 20 23 20 21 23 27 23 21 22 23 28 31 33 33 32 32 34 33 34 34 30 30 31 32 31
3 4 9 3 4 4 6 7 2 3 4 6 8 9 10 11 8 8 9 15 19 20 21 24 21 22 20 21 27 30 31 30 30 32 32 30 31 34 33 29 27 27 28 29
6 6 4 3 4 4 5 3 4 4 6 6 7 7 8 9 7 9 13 16 20 20 22 25 26 25 20 28 29 29 29 29 30 30 29 30 29 28 26 28 22 19 18 20
12 3 10 14 16 12 2 2 5 4 7 7 7 9 11 6 8 8 13 17 19 19 20 25 29 27 25 28 30 27 30 29 28 28 29 29 27 27 25 22 19 18 18 18
14 16 15 14 12 7 6 6 6 6 5 7 8 9 7 8 10 13 16 18 19 18 19 23 29 29 28 28 26 24 29 28 26 26 27 29 27 27 25 28 26 20 22 23
17 19 17 17 8 7 7 7 5 5 6 7 7 8 8 10 14 13 14 20 20 21 20 25 28 30 30 29 27 21 25 24 24 27 25 26 26 28 27 30 31 30 32 29
16 11 11 17 7 5 4 6 7 6 8 8 11 12 13 8 14 21 22 23 21 25 27 26 30 30 31 29 27 24 25 27 24 26 25 25 24 24 20 25 25 26 28 31
20 20 11 5 9 6 6 9 12 11 10 12 13 17 16 15 20 18 18 23 25 26 27 27 29 31 32 30 28 25 27 27 23 26 25 25 25 24 24 19 15 16 24 26
12 2 9 9 6 6 8 8 8 10 7 11 16 14 16 15 17 24 27 26 26 27 27 25 26 32 31 30 29 28 28 25 25 26 26 27 26 26 25 21 18 16 14 16
5 11 14 6 8 8 7 8 8 11 9 10 14 19 21 20 22 26 30 28 21 22 27 25 29 34 31 31 31 27 28 28 29 27 25 25 24 24 24 21 16 15 14 17
5 7 10 8 8 9 11 10 10 12 14 13 17 25 25 23 22 24 27 30 27 28 30 29 34 35 32 32 29 28 28 28 29 27 24 24 24 23 24 21 16 15 16 20
9 10 8 8 10 12 14 12 15 17 14 26 27 22 20 20 16 24 29 32 32 30 32 31 35 37 34 31 30 27 28 28 27 25 26 25 24 24 23 21 17 16 14 21
12 7 12 13 16 13 13 16 20 22 24 25 25 22 25 27 27 29 32 27 25 24 35 29 32 37 36 34 29 28 28 27 27 26 26 26 26 24 22 19 17 16 16 17
9 16 19 20 23 21 18 25 26 25 28 25 24 22 22 27 27 27 28 25 29 30 35 34 35 34 35 34 28 28 28 27 26 27 26 25 24 22 20 19 17 14 17 18
11 16 18 18 20 27 26 25 23 25 30 26 22 22 24 28 30 28 23 12 32 31 31 30 29 31 31 29 28 29 27 25 26 25 24 24 23 19 17 15 14 15 15 18
18 15 19 22 21 23 28 27 29 30 29 26 27 26 25 25 27 25 28 25 32 31 30 28 30 32 28 31 30 26 24 25 24 23 23 22 18 15 13 12 11 15 18 21
21 23 23 22 21 26 30 29 31 30 26 27 26 26 24 25 25 14 13 28 26 29 28 27 30 29 30 29 25 23 23 22 21 19 18 16 12 8 6 11 15 20 22 24
23 24 24 29 28 25 17 30 31 30 30 30 30 30 26 23 25 23 27 30 30 32 28 27 26 28 28 24 24 20 19 18 16 12 8 5 8 12 16 18 20 21 24 28
27 27 24 21 14 13 24 27 25 25 26 26 27 28 28 26 24 29 25 28 31 30 29 27 27 25 24 20 17 15 12 10 8 6 8 11 15 18 20 21 23 25 27 29
22 19 24 28 25 27 27 25 18 23 24 21 24 24 25 25 29 27 27 27 27 26 25 26 23 20 17 13 9 8 8 8 11 13 15 18 21 22 24 25 25 27 30 32
27 30 24 21 24 24 23 22 19 17 22 21 21 21 23 24 24 23 23 24 24 26 25 24 20 13 8 6 4 6 10 13 13 17 20 21 23 25 27 29 31 32 33 32
Wind_Direction
252 271 279 266 263 266 252 252 245 269 267 274 283 283 278 273 8 359 7 30 356 331 317 331 333 332 327 327 330 331 325 318 314 311 313 303 295 282 276 268 261 265 269 259
284 257 255 271 269 260 255 257 256 260 267 273 285 19 6 2 6 28 11 342 326 323 320 320 321 324 323 324 322 324 320 313 319 318 307 310 297 287 278 270 262 266 265 259
280 269 301 290 255 231 216 217 206 222 273 17 16 356 330 348 43 5 335 324 330 329 324 321 327 321 319 322 323 321 315 315 316 320 310 306 306 292 283 270 264 264 264 261
277 339 259 238 276 233 222 54 55 56 27 15 274 276 273 312 25 346 346 335 327 320 319 328 325 323 324 323 321 317 312 314 314 314 312 312 305 294 287 278 266 262 260 260
231 198 290 298 289 226 173 144 337 14 346 303 321 308 285 24 351 317 295 294 308 302 311 318 321 327 325 324 318 311 310 308 309 307 303 302 297 296 290 284 274 262 257 259
164 227 251 95 316 90 80 224 317 355 358 312 354 330 277 326 324 312 306 314 317 320 321 326 326 320 316 318 315 313 315 313 311 307 302 297 295 292 293 286 273 267 259 253
232 250 269 249 312 327 229 297 321 6 342 335 283 231 278 294 299 302 315 324 323 325 321 314 315 318 311 311 313 312 312 311 309 306 301 300 298 296 291 283 278 265 255 253
212 248 271 77 8 1 273 302 248 257 255 262 257 267 274 282 282 286 294 303 315 304 302 309 306 316 309 308 312 313 310 308 305 303 304 303 298 294 287 276 271 258 246 242
199 214 270 31 111 255 264 244 269 270 276 273 276 264 274 286 282 306 308 295 313 312 310 311 311 310 304 308 311 311 310 307 307 305 302 302 297 290 279 271 255 248 234 235
287 359 308 315 320 329 194 225 276 251 269 268 277 300 304 298 304 303 299 304 303 299 303 304 308 305 303 306 307 309 317 314 312 310 308 305 300 293 280 260 244 241 236 234
278 283 296 288 294 280 294 286 276 278 282 298 311 304 288 297 298 288 294 299 302 299 301 302 306 305 306 305 304 303 312 309 311 314 310 306 300 293 286 269 255 244 239 236
269 281 277 285 283 273 277 284 282 297 293 280 263 283 290 293 293 292 298 305 300 301 302 301 303 303 305 307 305 298 308 304 309 310 308 307 302 297 291 286 267 264 255 245
265 276 276 291 272 249 259 273 269 258 265 277 288 281 289 287 296 299 300 298 293 298 300 299 301 302 306 310 309 299 305 303 302 306 303 305 301 297 293 291 276 262 258 254
278 283 288 306 282 293 281 279 300 289 273 279 284 295 290 289 295 287 279 288 292 293 293 295 295 299 304 306 306 300 306 302 300 304 300 297 298 295 288 279 269 268 272 264
274 266 267 259 280 293 287 292 298 292 284 293 295 269 283 288 292 294 297 294 294 292 291 289 293 297 303 307 305 301 305 302 300 295 294 291 294 293 289 274 261 266 255 241
302 293 273 284 284 285 281 286 271 280 286 279 280 288 288 284 286 290 294 297 294 291 294 293 294 297 302 304 302 300 304 302 302 298 294 293 293 293 289 280 260 255 238 217
285 312 302 276 259 264 269 279 280 283 289 281 284 289 293 292 291 292 294 296 293 288 289 292 289 297 298 300 299 298 303 299 300 298 290 288 290 289 287 277 259 251 232 213
221 230 261 257 273 282 284 275 274 282 280 286 284 285 289 281 283 290 289 293 296 294 289 288 289 299 299 296 295 298 299 294 296 293 292 291 289 287 281 275 260 254 228 211
268 266 275 267 269 274 275 278 280 294 293 282 285 284 284 281 283 284 286 289 285 286 289 296 295 299 299 300 296 302 295 292 291 291 292 291 289 283 276 267 256 244 217 194
277 281 278 283 283 282 285 282 288 293 284 287 284 278 277 280 283 280 282 278 279 282 292 295 297 297 299 302 302 302 294 291 289 294 293 290 285 279 274 265 252 223 199 186
262 276 285 286 285 287 283 283 288 284 284 287 277 273 278 283 282 283 283 283 286 296 296 295 294 298 299 300 306 300 293 292 293 293 289 287 283 278 271 257 225 201 178 159
290 289 281 280 282 282 282 284 281 282 283 285 280 277 278 278 282 283 276 270 287 295 296 294 297 303 302 306 305 299 297 296 293 292 289 286 278 274 264 230 184 160 145 138
283 282 275 275 279 283 286 283 281 282 283 281 280 279 277 277 281 282 286 292 292 294 293 293 299 303 308 308 302 301 299 296 294 295 301 307 302 271 192 146 134 129 125 125
282 277 268 275 283 282 279 280 282 283 280 279 277 276 275 280 283 278 276 281 291 297 296 297 305 310 310 308 309 307 308 313 313 315 332 21 76 96 101 107 109 115 119 122
280 275 273 277 276 274 275 276 278 276 276 275 276 277 279 276 262 283 282 287 297 299 300 308 312 309 309 316 320 321 325 345 6 39 67 79 85 91 97 102 108 112 114 118
275 273 278 277 273 274 275 278 275 277 278 278 277 277 276 276 279 282 289 298 299 301 301 310 306 310 317 325 331 354 17 42 64 70 85 86 91 92 96 100 103 108 114 120
281 280 280 279 276 276 274 272 273 273 274 274 278 282 283 288 290 292 292 293 297 301 307 310 308 318 324 334 22 60 76 75 81 94 92 92 95 98 101 105 110 115 120 123